DateTimeUTC,F1_A11,F1_S11,BsB_S11,BsG_S11,BsR_S11,BbsB_S11,BbsG_S11,BbsR_S11,BaB_A11,BaG_A11,BaR_A11,Tu_S11,T_S11,Uu_S11,U_S11,P_S11,T1_A11
2021-06-16T19:00:00Z,00000200,20000000,,,,,,,-000.21,0000.03,-000.11,19.2,25.9,02.6,01.7,0668.9,31.1
2021-06-16T19:01:00Z,00000200,20000000,,,,,,,-000.07,-000.11,-000.24,19.2,25.9,02.6,01.7,0668.9,31.1
2021-06-16T19:02:00Z,00000200,20000000,,,,,,,-000.02,-000.12,0000.06,19.2,25.9,02.6,01.7,0668.9,31.1
2021-06-16T19:03:00Z,00000200,60000000,,,,,,,0000.37,0000.46,0000.30,19.2,25.9,02.6,01.7,0668.9,31.1
2021-06-16T19:04:00Z,00000200,40000000,0001.18,0000.89,0000.50,0000.42,0000.20,-000.15,0000.35,0000.17,-000.02,19.3,25.8,02.7,01.8,0669.9,31.1
2021-06-16T19:05:00Z,00000200,00000000,0001.78,0000.45,0000.20,0000.71,0000.18,0000.33,0000.38,0000.20,0000.31,19.3,25.8,02.7,01.8,0669.9,31.1
2021-06-16T19:06:00Z,00000200,00000000,0000.76,0000.70,0000.40,0000.44,0000.27,0000.07,-000.02,0000.18,0000.46,19.3,25.8,02.6,01.8,0669.9,31.1
2021-06-16T19:07:00Z,00000200,00000000,0000.71,0001.11,0000.27,0000.35,0000.11,0000.18,0000.25,0000.43,-000.49,19.3,25.8,02.8,01.9,0669.9,31.1
2021-06-16T19:08:00Z,00000200,00000000,0000.72,0000.70,0000.55,0000.41,0000.08,0000.23,0000.29,0000.49,0000.47,19.4,25.7,02.6,01.8,0669.9,31.1
2021-06-16T19:09:00Z,00000200,00010000,0001.90,0000.59,0000.30,-000.02,-000.02,0000.04,0000.16,-000.28,-000.00,19.4,25.8,02.6,01.8,0669.9,31.1
2021-06-16T19:10:00Z,00000200,00000000,0000.65,0000.56,0000.43,0000.47,0000.11,0000.05,-000.09,0000.40,0000.07,19.4,25.8,02.6,01.8,0669.9,31.1
2021-06-16T19:11:00Z,00000200,00000000,0000.73,0000.71,0000.45,0000.46,0000.34,0000.16,0000.81,0000.16,0000.34,19.4,25.8,02.6,01.8,0669.9,31.1
2021-06-16T19:12:00Z,00000200,00000000,0001.22,0000.37,0000.55,0000.78,0000.30,-000.12,0000.27,0000.51,0000.31,19.4,25.8,02.7,01.9,0669.9,31.1
2021-06-16T19:13:00Z,00000200,00000000,0001.33,0000.65,0000.10,0000.25,0000.06,0000.00,0000.27,-000.17,0000.38,19.4,25.8,02.7,01.8,0669.9,31.1
2021-06-16T19:14:00Z,00000200,00000000,0000.59,0000.72,0000.40,0000.59,0000.15,0000.20,0000.06,0000.51,-000.04,19.4,25.8,02.7,01.8,0669.9,31.1
2021-06-16T19:15:00Z,00000200,00000000,0000.35,0000.64,0000.59,0000.12,0000.24,0000.21,0000.47,0000.35,0000.31,19.4,25.8,02.7,01.8,0669.9,31.1
2021-06-16T19:16:00Z,00000200,00000000,0000.85,0000.50,0000.17,0000.44,0000.40,0000.04,0000.56,-000.01,0000.09,19.4,25.7,02.8,01.9,0669.9,31.1
2021-06-16T19:17:00Z,00000200,00000000,0000.83,0000.59,0000.49,0000.54,0000.03,0000.20,0000.04,0000.42,0000.23,19.4,25.7,02.8,01.9,0669.9,31.1
2021-06-16T19:18:00Z,00000200,00000000,0001.40,0000.63,0000.18,0000.32,0000.44,0000.08,0000.25,0000.26,0000.15,19.4,25.8,02.8,01.9,0669.9,31.1
2021-06-16T19:19:00Z,00000200,00000000,0001.86,0000.76,0000.68,0000.01,0000.49,0000.32,0000.05,0000.23,0000.39,19.4,25.8,02.8,01.9,0669.9,31.1
2021-06-16T19:20:00Z,00000200,00000000,0000.96,0000.80,0000.47,0000.39,0000.11,-000.03,0000.32,0000.31,-000.32,19.4,25.8,02.7,01.9,0669.9,31.1
2021-06-16T19:21:00Z,00000200,00000000,0001.34,0000.50,0000.53,0000.62,0000.20,0000.21,0000.35,0000.11,0000.47,19.4,25.8,02.8,01.9,0669.9,31.1
2021-06-16T19:22:00Z,00000200,00000000,0001.29,0000.55,0000.57,-000.06,-000.02,-000.12,0000.06,0000.27,0000.21,19.4,25.8,02.8,01.9,0669.9,31.1
2021-06-16T19:23:00Z,00000200,00000000,0001.29,0000.52,0000.35,0000.55,0000.27,0000.49,0000.28,0000.23,0000.14,19.4,25.8,02.8,01.9,0669.9,31.1
2021-06-16T19:24:00Z,00000200,00000000,0000.92,0000.42,0000.56,0000.44,0000.01,0000.38,0000.35,-000.00,0000.12,19.4,25.8,02.7,01.8,0669.9,31.1
2021-06-16T19:25:00Z,00000200,00000000,0001.42,0000.72,0000.64,0000.26,-000.11,0000.36,0000.11,0000.52,0000.12,19.4,25.8,02.8,01.9,0669.9,31.1
2021-06-16T19:26:00Z,00000200,00000000,0001.37,0000.81,0000.77,0000.60,0000.20,0000.37,0000.23,-000.06,0000.40,19.4,25.8,02.8,01.9,0669.9,31.1
2021-06-16T19:27:00Z,00000200,00000000,0001.12,0000.77,0000.21,0000.54,0000.16,-000.09,-000.01,0000.36,-000.11,19.4,25.8,02.7,01.9,0669.9,31.1
2021-06-16T19:28:00Z,00000200,00000000,0001.20,0001.00,0000.58,0000.14,-000.10,0000.27,0000.52,0000.22,0000.32,19.4,25.8,02.7,01.8,0669.9,31.1
2021-06-16T19:29:00Z,00000200,00000000,0001.56,0000.50,0000.51,0000.60,0000.23,0000.25,0000.42,-000.01,0000.31,19.4,25.8,02.6,01.8,0669.9,31.1
2021-06-16T19:30:00Z,00000200,00000000,0001.71,0000.61,0000.30,0000.67,0000.10,0000.16,0000.16,0000.11,-000.29,19.4,25.8,02.7,01.8,0669.9,31.1
2021-06-16T19:31:00Z,00000200,00000000,0001.37,0000.93,-000.00,0000.71,0000.07,-000.06,0000.36,0000.41,0000.49,19.4,25.8,02.7,01.8,0669.9,31.1
2021-06-16T19:32:00Z,00000200,00000000,0001.54,0000.60,0000.27,-000.07,0000.14,-000.06,0000.11,0000.48,0000.38,19.4,25.8,02.7,01.8,0669.9,31.1
2021-06-16T19:33:00Z,00000200,00000000,0000.86,0000.83,0000.47,0000.28,0000.09,0000.14,0000.46,0000.31,-000.04,19.4,25.8,02.7,01.8,0669.9,31.1
2021-06-16T19:34:00Z,00000200,00000000,0001.35,0001.16,0000.51,0000.39,0000.17,0000.28,0000.09,0000.02,-000.06,19.4,25.8,02.7,01.8,0669.9,31.1
2021-06-16T19:35:00Z,00000200,00000000,0001.57,0000.76,0000.58,0000.56,0000.19,0000.28,0000.36,0000.04,0000.42,19.4,25.8,02.7,01.8,0669.9,31.1
2021-06-16T19:36:00Z,00000200,00000000,0002.11,0000.93,0000.49,0000.78,0000.25,0000.14,0000.21,0000.24,0000.28,19.4,25.8,02.8,01.9,0669.9,31.1
2021-06-16T19:37:00Z,00000200,00000000,0001.76,0000.68,0000.50,0000.21,-000.10,0000.25,0000.31,0000.41,-000.07,19.4,25.8,02.6,01.8,0669.9,31.1
2021-06-16T19:38:00Z,00000200,00000000,0001.12,0000.61,0000.30,0000.16,0000.27,-000.21,0000.31,0000.22,0000.44,19.4,25.8,02.7,01.8,0669.9,31.1
2021-06-16T19:39:00Z,00000200,00000000,0001.86,0000.62,0000.67,0000.64,0000.18,0000.17,0000.16,0000.16,0000.12,19.4,25.8,02.7,01.9,0669.9,31.1
2021-06-16T19:40:00Z,00000200,00000000,0001.15,0000.72,0000.38,0000.65,0000.29,0000.10,0000.33,0000.19,0000.15,19.4,25.8,02.7,01.9,0669.9,31.1
2021-06-16T19:41:00Z,00000200,00000000,0001.51,0000.98,0000.20,0000.99,0000.23,0000.24,0000.14,0000.26,0000.16,19.4,25.8,02.7,01.9,0669.9,31.1
2021-06-16T19:42:00Z,00000200,00000000,0000.25,0000.41,0000.11,0000.44,0000.18,0000.08,0000.31,0000.64,0000.15,19.4,25.8,02.8,01.9,0669.9,31.1
2021-06-16T19:43:00Z,00000200,00000000,0000.56,0000.48,0000.12,0000.45,0000.04,0000.08,0000.23,-000.16,0000.26,19.4,25.8,02.6,01.8,0669.9,31.1
2021-06-16T19:44:00Z,00000200,00000000,0001.11,0000.74,0000.40,0000.55,0000.09,-000.04,0000.11,0000.25,0000.05,19.4,25.8,02.7,01.8,0669.9,31.1
2021-06-16T19:45:00Z,00000200,00000000,0001.48,0000.85,0000.34,0000.34,0000.20,0000.41,0000.50,0000.60,0000.20,19.4,25.8,02.6,01.8,0669.9,31.1
2021-06-16T19:46:00Z,00000200,00000000,0000.97,0000.63,0000.31,0000.74,0000.08,0000.20,0000.21,0000.08,0000.47,19.4,25.8,02.6,01.8,0669.9,31.1
2021-06-16T19:47:00Z,00000200,00000000,0000.97,0000.71,0000.60,0000.46,0000.14,0000.31,0000.39,0000.08,0000.16,19.4,25.8,02.8,01.9,0669.9,31.1
2021-06-16T19:48:00Z,00000200,00000000,0001.61,0000.86,0000.20,0000.67,-000.09,-000.02,0000.43,0000.72,0000.12,19.5,25.8,02.7,01.8,0669.9,31.2
2021-06-16T19:49:00Z,00000200,00000000,0000.89,0000.77,0000.35,0000.24,0000.06,0000.16,0000.94,0000.74,0000.45,19.5,25.8,02.8,01.9,0669.9,31.1
2021-06-16T19:50:00Z,00000200,00000000,0001.21,0000.84,0000.45,-000.17,0000.46,0000.32,0003.02,0002.72,0002.12,19.5,25.8,02.8,01.9,0669.9,31.1
2021-06-16T19:51:00Z,00000200,00000000,0000.95,0001.18,0000.69,0000.58,0000.17,0000.52,0009.45,0008.26,0006.56,19.5,25.8,02.8,01.9,0669.9,31.1
2021-06-16T19:52:00Z,00000200,00000000,0001.81,0001.00,0000.33,0000.62,0000.51,-000.16,0028.23,0025.74,0019.00,19.5,25.8,02.8,01.9,0670.0,31.2
2021-06-16T19:53:00Z,00000200,00000000,0002.22,0001.13,0000.87,0000.63,0000.25,0000.33,0028.04,0024.97,0018.75,19.5,25.8,02.9,02.0,0670.0,31.1
2021-06-16T19:54:00Z,00000200,00000000,0001.96,0000.93,0000.56,0000.70,0000.17,0000.26,0020.03,0017.69,0013.81,19.5,25.8,02.8,01.9,0670.0,31.1
2021-06-16T19:55:00Z,00000200,00000000,0001.07,0001.13,0000.34,-000.30,0000.29,0000.10,0003.94,0003.24,0002.28,19.5,25.8,02.7,01.9,0670.0,31.1
2021-06-16T19:56:00Z,00000200,00000000,0001.56,0000.83,0000.16,0000.52,0000.18,0000.05,0000.95,0001.25,0000.60,19.5,25.8,02.8,01.9,0670.0,31.1
2021-06-16T19:57:00Z,00000200,40000000,,,,,,,0000.93,0000.34,0000.80,19.5,25.8,03.1,02.1,0670.0,31.1
2021-06-16T19:58:00Z,00000200,60000000,,,,,,,-000.38,0000.08,-000.50,19.3,25.9,02.8,01.9,0669.0,31.1
2021-06-16T19:59:00Z,00000200,20000000,,,,,,,0000.35,0000.20,0000.43,19.2,26.0,02.7,01.8,0669.0,31.1
